Terminal Aerodrome Forecast
Issued by NWS St Louis, MO

Home | Current Version | Previous Version | Text Only | Print | Product List | Glossary On
Versions: 1 2 3 4 5 6 7 8 9 10 11 12 13 14 15 16 17 18 19 20 21 22 23
000
FTUS43 KLSX 231406 AAA
TAFCOU
TAF AMD
KCOU 231406Z 2314/2412 16008KT P6SM SCT025 BKN040
     FM232100 17009KT P6SM BKN050
      TEMPO 2322/2402 4SM TSRA OVC025CB
     FM240200 16008KT P6SM SHRA VCTS BKN090CB
     FM240600 17008KT P6SM BKN070=

USA.gov is the U.S. government's official web portal to all federal, state and local government web resources and services.